owner,sensor,date,latitude,longitude,sea_surface_height_above_sea_level,qcFlag 
COMPS,ioos:station:USF.COMPS:SHP:1,2009-11-01T00:00:00Z,30.0600,-84.2910,-0.102,1111122 
COMPS,ioos:station:USF.COMPS:SHP:1,2009-11-01T00:06:00Z,30.0600,-84.2910,-0.098,1111122 
COMPS,ioos:station:USF.COMPS:SHP:1,2009-11-01T00:12:00Z,30.0600,-84.2910,-0.09,1111122 
COMPS,ioos:station:USF.COMPS:SHP:1,2009-11-01T00:18:00Z,30.0600,-84.2910,-0.088,1111122 
COMPS,ioos:station:USF.COMPS:SHP:1,2009-11-01T00:24:00Z,30.0600,-84.2910,-0.094,1111122 
COMPS,ioos:station:USF.COMPS:SHP:1,2009-11-01T00:30:00Z,30.0600,-84.2910,-0.097,1111122 
COMPS,ioos:station:USF.COMPS:SHP:1,2009-11-01T00:36:00Z,30.0600,-84.2910,-0.089,1111122 
COMPS,ioos:station:USF.COMPS:SHP:1,2009-11-01T00:42:00Z,30.0600,-84.2910,-0.078,1111122 
COMPS,ioos:station:USF.COMPS:SHP:1,2009-11-01T00:48:00Z,30.0600,-84.2910,-0.077,1111122 
COMPS,ioos:station:USF.COMPS:SHP:1,2009-11-01T00:54:00Z,30.0600,-84.2910,-0.076,1111122 
COMPS,ioos:station:USF.COMPS:SHP:1,2009-11-01T01:00:00Z,30.0600,-84.2910,-0.075,1111122 
COMPS,ioos:station:USF.COMPS:SHP:1,2009-11-01T01:06:00Z,30.0600,-84.2910,-0.059,1111122 
COMPS,ioos:station:USF.COMPS:SHP:1,2009-11-01T01:12:00Z,30.0600,-84.2910,-0.045,1111122 
COMPS,ioos:station:USF.COMPS:SHP:1,2009-11-01T01:18:00Z,30.0600,-84.2910,-0.042,1111122 
COMPS,ioos:station:USF.COMPS:SHP:1,2009-11-01T01:24:00Z,30.0600,-84.2910,-0.041,1111122 
COMPS,ioos:station:USF.COMPS:SHP:1,2009-11-01T01:30:00Z,30.0600,-84.2910,-0.038,1111122 
COMPS,ioos:station:USF.COMPS:SHP:1,2009-11-01T01:36:00Z,30.0600,-84.2910,-0.02,1111122 
COMPS,ioos:station:USF.COMPS:SHP:1,2009-11-01T01:42:00Z,30.0600,-84.2910,-0.004,1111122 
COMPS,ioos:station:USF.COMPS:SHP:1,2009-11-01T01:48:00Z,30.0600,-84.2910,0.007,1111122 
COMPS,ioos:station:USF.COMPS:SHP:1,2009-11-01T01:54:00Z,30.0600,-84.2910,0.015,1111122 
COMPS,ioos:station:USF.COMPS:SHP:1,2009-11-01T02:00:00Z,30.0600,-84.2910,0.02,1111122 
COMPS,ioos:station:USF.COMPS:SHP:1,2009-11-01T02:06:00Z,30.0600,-84.2910,0.027,1111122 
COMPS,ioos:station:USF.COMPS:SHP:1,2009-11-01T02:12:00Z,30.0600,-84.2910,0.044,1111122 
COMPS,ioos:station:USF.COMPS:SHP:1,2009-11-01T02:18:00Z,30.0600,-84.2910,0.059,1111122 
COMPS,ioos:station:USF.COMPS:SHP:1,2009-11-01T02:24:00Z,30.0600,-84.2910,0.059,1111122 
COMPS,ioos:station:USF.COMPS:SHP:1,2009-11-01T02:30:00Z,30.0600,-84.2910,0.058,1111122 
COMPS,ioos:station:USF.COMPS:SHP:1,2009-11-01T02:36:00Z,30.0600,-84.2910,0.077,1111122 
COMPS,ioos:station:USF.COMPS:SHP:1,2009-11-01T02:42:00Z,30.0600,-84.2910,0.102,1111122 
COMPS,ioos:station:USF.COMPS:SHP:1,2009-11-01T02:48:00Z,30.0600,-84.2910,0.122,1111122 
COMPS,ioos:station:USF.COMPS:SHP:1,2009-11-01T02:54:00Z,30.0600,-84.2910,0.143,1111122 
COMPS,ioos:station:USF.COMPS:SHP:1,2009-11-01T03:00:00Z,30.0600,-84.2910,0.161,1111122 
COMPS,ioos:station:USF.COMPS:SHP:1,2009-11-01T03:06:00Z,30.0600,-84.2910,0.179,1111122 
COMPS,ioos:station:USF.COMPS:SHP:1,2009-11-01T03:12:00Z,30.0600,-84.2910,0.195,1111122 
COMPS,ioos:station:USF.COMPS:SHP:1,2009-11-01T03:18:00Z,30.0600,-84.2910,0.223,1111122 
COMPS,ioos:station:USF.COMPS:SHP:1,2009-11-01T03:24:00Z,30.0600,-84.2910,0.242,1111122 
COMPS,ioos:station:USF.COMPS:SHP:1,2009-11-01T03:30:00Z,30.0600,-84.2910,0.244,1111122 
COMPS,ioos:station:USF.COMPS:SHP:1,2009-11-01T03:36:00Z,30.0600,-84.2910,0.257,1111122 
COMPS,ioos:station:USF.COMPS:SHP:1,2009-11-01T03:42:00Z,30.0600,-84.2910,0.271,1111122 
COMPS,ioos:station:USF.COMPS:SHP:1,2009-11-01T03:48:00Z,30.0600,-84.2910,0.286,1111122 
COMPS,ioos:station:USF.COMPS:SHP:1,2009-11-01T03:54:00Z,30.0600,-84.2910,0.301,1111122 
COMPS,ioos:station:USF.COMPS:SHP:1,2009-11-01T04:00:00Z,30.0600,-84.2910,0.316,1111122 
COMPS,ioos:station:USF.COMPS:SHP:1,2009-11-01T04:06:00Z,30.0600,-84.2910,0.333,1111122 
COMPS,ioos:station:USF.COMPS:SHP:1,2009-11-01T04:12:00Z,30.0600,-84.2910,0.348,1111122 
COMPS,ioos:station:USF.COMPS:SHP:1,2009-11-01T04:18:00Z,30.0600,-84.2910,0.364,1111122 
COMPS,ioos:station:USF.COMPS:SHP:1,2009-11-01T04:24:00Z,30.0600,-84.2910,0.365,1111122 
COMPS,ioos:station:USF.COMPS:SHP:1,2009-11-01T04:30:00Z,30.0600,-84.2910,0.365,1111122 
COMPS,ioos:station:USF.COMPS:SHP:1,2009-11-01T04:36:00Z,30.0600,-84.2910,0.387,1111122 
COMPS,ioos:station:USF.COMPS:SHP:1,2009-11-01T04:42:00Z,30.0600,-84.2910,0.401,1111122 
COMPS,ioos:station:USF.COMPS:SHP:1,2009-11-01T04:48:00Z,30.0600,-84.2910,0.414,1111122 
COMPS,ioos:station:USF.COMPS:SHP:1,2009-11-01T04:54:00Z,30.0600,-84.2910,0.408,1111122 
COMPS,ioos:station:USF.COMPS:SHP:1,2009-11-01T05:00:00Z,30.0600,-84.2910,0.405,1111122 
COMPS,ioos:station:USF.COMPS:SHP:1,2009-11-01T05:06:00Z,30.0600,-84.2910,0.406,1111122 
COMPS,ioos:station:USF.COMPS:SHP:1,2009-11-01T05:12:00Z,30.0600,-84.2910,0.417,1111122 
COMPS,ioos:station:USF.COMPS:SHP:1,2009-11-01T05:18:00Z,30.0600,-84.2910,0.427,1111122 
COMPS,ioos:station:USF.COMPS:SHP:1,2009-11-01T05:24:00Z,30.0600,-84.2910,0.436,1111122 
COMPS,ioos:station:USF.COMPS:SHP:1,2009-11-01T05:30:00Z,30.0600,-84.2910,0.43,1111122 
COMPS,ioos:station:USF.COMPS:SHP:1,2009-11-01T05:36:00Z,30.0600,-84.2910,0.432,1111122 
COMPS,ioos:station:USF.COMPS:SHP:1,2009-11-01T05:42:00Z,30.0600,-84.2910,0.422,1111122 
COMPS,ioos:station:USF.COMPS:SHP:1,2009-11-01T05:48:00Z,30.0600,-84.2910,0.418,1111122 
COMPS,ioos:station:USF.COMPS:SHP:1,2009-11-01T05:54:00Z,30.0600,-84.2910,0.416,1111122 
COMPS,ioos:station:USF.COMPS:SHP:1,2009-11-01T06:00:00Z,30.0600,-84.2910,0.408,1111122 
COMPS,ioos:station:USF.COMPS:SHP:1,2009-11-01T06:06:00Z,30.0600,-84.2910,0.385,1111122 
COMPS,ioos:station:USF.COMPS:SHP:1,2009-11-01T06:12:00Z,30.0600,-84.2910,0.372,1111122 
COMPS,ioos:station:USF.COMPS:SHP:1,2009-11-01T06:18:00Z,30.0600,-84.2910,0.373,1111122 
COMPS,ioos:station:USF.COMPS:SHP:1,2009-11-01T06:24:00Z,30.0600,-84.2910,0.364,1111122 
COMPS,ioos:station:USF.COMPS:SHP:1,2009-11-01T06:30:00Z,30.0600,-84.2910,0.339,1111122 
COMPS,ioos:station:USF.COMPS:SHP:1,2009-11-01T06:36:00Z,30.0600,-84.2910,0.328,1111122 
COMPS,ioos:station:USF.COMPS:SHP:1,2009-11-01T06:42:00Z,30.0600,-84.2910,0.311,1111122 
COMPS,ioos:station:USF.COMPS:SHP:1,2009-11-01T06:48:00Z,30.0600,-84.2910,0.291,1111122 
COMPS,ioos:station:USF.COMPS:SHP:1,2009-11-01T06:54:00Z,30.0600,-84.2910,0.271,1111122 
COMPS,ioos:station:USF.COMPS:SHP:1,2009-11-01T07:00:00Z,30.0600,-84.2910,0.267,1111122 
COMPS,ioos:station:USF.COMPS:SHP:1,2009-11-01T07:06:00Z,30.0600,-84.2910,0.244,1111122 
COMPS,ioos:station:USF.COMPS:SHP:1,2009-11-01T07:12:00Z,30.0600,-84.2910,0.214,1111122 
COMPS,ioos:station:USF.COMPS:SHP:1,2009-11-01T07:18:00Z,30.0600,-84.2910,0.199,1111122 
COMPS,ioos:station:USF.COMPS:SHP:1,2009-11-01T07:24:00Z,30.0600,-84.2910,0.182,1111122 
COMPS,ioos:station:USF.COMPS:SHP:1,2009-11-01T07:30:00Z,30.0600,-84.2910,0.159,1111122 
COMPS,ioos:station:USF.COMPS:SHP:1,2009-11-01T07:36:00Z,30.0600,-84.2910,0.136,1111122 
COMPS,ioos:station:USF.COMPS:SHP:1,2009-11-01T07:42:00Z,30.0600,-84.2910,0.113,1111122 
COMPS,ioos:station:USF.COMPS:SHP:1,2009-11-01T07:48:00Z,30.0600,-84.2910,0.09,1111122 
COMPS,ioos:station:USF.COMPS:SHP:1,2009-11-01T07:54:00Z,30.0600,-84.2910,0.066,1111122 
COMPS,ioos:station:USF.COMPS:SHP:1,2009-11-01T08:00:00Z,30.0600,-84.2910,0.037,1111122 
COMPS,ioos:station:USF.COMPS:SHP:1,2009-11-01T08:06:00Z,30.0600,-84.2910,0.009,1111122 
COMPS,ioos:station:USF.COMPS:SHP:1,2009-11-01T08:12:00Z,30.0600,-84.2910,-0.017,1111122 
COMPS,ioos:station:USF.COMPS:SHP:1,2009-11-01T08:18:00Z,30.0600,-84.2910,-0.047,1111122 
COMPS,ioos:station:USF.COMPS:SHP:1,2009-11-01T08:24:00Z,30.0600,-84.2910,-0.079,1111122 
COMPS,ioos:station:USF.COMPS:SHP:1,2009-11-01T08:30:00Z,30.0600,-84.2910,-0.108,1111122 
COMPS,ioos:station:USF.COMPS:SHP:1,2009-11-01T08:36:00Z,30.0600,-84.2910,-0.138,1111122 
COMPS,ioos:station:USF.COMPS:SHP:1,2009-11-01T08:42:00Z,30.0600,-84.2910,-0.162,1111122 
COMPS,ioos:station:USF.COMPS:SHP:1,2009-11-01T08:48:00Z,30.0600,-84.2910,-0.183,1111122 
COMPS,ioos:station:USF.COMPS:SHP:1,2009-11-01T08:54:00Z,30.0600,-84.2910,-0.208,1111122 
COMPS,ioos:station:USF.COMPS:SHP:1,2009-11-01T09:00:00Z,30.0600,-84.2910,-0.235,1111122 
COMPS,ioos:station:USF.COMPS:SHP:1,2009-11-01T09:06:00Z,30.0600,-84.2910,-0.259,1111122 
COMPS,ioos:station:USF.COMPS:SHP:1,2009-11-01T09:12:00Z,30.0600,-84.2910,-0.282,1111122 
COMPS,ioos:station:USF.COMPS:SHP:1,2009-11-01T09:18:00Z,30.0600,-84.2910,-0.304,1111122 
COMPS,ioos:station:USF.COMPS:SHP:1,2009-11-01T09:24:00Z,30.0600,-84.2910,-0.328,1111122 
COMPS,ioos:station:USF.COMPS:SHP:1,2009-11-01T09:30:00Z,30.0600,-84.2910,-0.35,1111122 
COMPS,ioos:station:USF.COMPS:SHP:1,2009-11-01T09:36:00Z,30.0600,-84.2910,-0.374,1111122 
COMPS,ioos:station:USF.COMPS:SHP:1,2009-11-01T09:42:00Z,30.0600,-84.2910,-0.397,1111122 
COMPS,ioos:station:USF.COMPS:SHP:1,2009-11-01T09:48:00Z,30.0600,-84.2910,-0.419,1111122 
COMPS,ioos:station:USF.COMPS:SHP:1,2009-11-01T09:54:00Z,30.0600,-84.2910,-0.441,1111122 
COMPS,ioos:station:USF.COMPS:SHP:1,2009-11-01T10:00:00Z,30.0600,-84.2910,-0.463,1111122 
COMPS,ioos:station:USF.COMPS:SHP:1,2009-11-01T10:06:00Z,30.0600,-84.2910,-0.485,1111122 
COMPS,ioos:station:USF.COMPS:SHP:1,2009-11-01T10:12:00Z,30.0600,-84.2910,-0.506,1111122 
COMPS,ioos:station:USF.COMPS:SHP:1,2009-11-01T10:18:00Z,30.0600,-84.2910,-0.525,1111122 
COMPS,ioos:station:USF.COMPS:SHP:1,2009-11-01T10:24:00Z,30.0600,-84.2910,-0.544,1111122 
COMPS,ioos:station:USF.COMPS:SHP:1,2009-11-01T10:30:00Z,30.0600,-84.2910,-0.566,1111122 
COMPS,ioos:station:USF.COMPS:SHP:1,2009-11-01T10:36:00Z,30.0600,-84.2910,-0.589,1111122 
COMPS,ioos:station:USF.COMPS:SHP:1,2009-11-01T10:42:00Z,30.0600,-84.2910,-0.611,1111122 
COMPS,ioos:station:USF.COMPS:SHP:1,2009-11-01T10:48:00Z,30.0600,-84.2910,-0.634,1111122 
COMPS,ioos:station:USF.COMPS:SHP:1,2009-11-01T10:54:00Z,30.0600,-84.2910,-0.656,1111122 
COMPS,ioos:station:USF.COMPS:SHP:1,2009-11-01T11:00:00Z,30.0600,-84.2910,-0.679,1111122 
COMPS,ioos:station:USF.COMPS:SHP:1,2009-11-01T11:06:00Z,30.0600,-84.2910,-0.7,1111122 
COMPS,ioos:station:USF.COMPS:SHP:1,2009-11-01T11:12:00Z,30.0600,-84.2910,-0.72,1111122 
COMPS,ioos:station:USF.COMPS:SHP:1,2009-11-01T11:18:00Z,30.0600,-84.2910,-0.739,1111122 
COMPS,ioos:station:USF.COMPS:SHP:1,2009-11-01T11:24:00Z,30.0600,-84.2910,-0.761,1111122 
COMPS,ioos:station:USF.COMPS:SHP:1,2009-11-01T11:30:00Z,30.0600,-84.2910,-0.78,1111122 
COMPS,ioos:station:USF.COMPS:SHP:1,2009-11-01T11:36:00Z,30.0600,-84.2910,-0.797,1111122 
COMPS,ioos:station:USF.COMPS:SHP:1,2009-11-01T11:42:00Z,30.0600,-84.2910,-0.811,1111122 
COMPS,ioos:station:USF.COMPS:SHP:1,2009-11-01T11:48:00Z,30.0600,-84.2910,-0.796,1111122 
COMPS,ioos:station:USF.COMPS:SHP:1,2009-11-01T11:54:00Z,30.0600,-84.2910,-0.796,1111122 
COMPS,ioos:station:USF.COMPS:SHP:1,2009-11-01T12:00:00Z,30.0600,-84.2910,-0.797,1111122 
COMPS,ioos:station:USF.COMPS:SHP:1,2009-11-01T12:06:00Z,30.0600,-84.2910,-0.797,1111122 
COMPS,ioos:station:USF.COMPS:SHP:1,2009-11-01T12:12:00Z,30.0600,-84.2910,-0.797,1111122 
COMPS,ioos:station:USF.COMPS:SHP:1,2009-11-01T12:18:00Z,30.0600,-84.2910,-0.797,1111122 
COMPS,ioos:station:USF.COMPS:SHP:1,2009-11-01T12:24:00Z,30.0600,-84.2910,-0.798,1111122 
COMPS,ioos:station:USF.COMPS:SHP:1,2009-11-01T12:30:00Z,30.0600,-84.2910,-0.798,1111122 
COMPS,ioos:station:USF.COMPS:SHP:1,2009-11-01T12:36:00Z,30.0600,-84.2910,-0.797,1111122 
COMPS,ioos:station:USF.COMPS:SHP:1,2009-11-01T12:42:00Z,30.0600,-84.2910,-0.798,1111122 
COMPS,ioos:station:USF.COMPS:SHP:1,2009-11-01T12:48:00Z,30.0600,-84.2910,-0.798,1111122 
COMPS,ioos:station:USF.COMPS:SHP:1,2009-11-01T12:54:00Z,30.0600,-84.2910,-0.798,1111122 
COMPS,ioos:station:USF.COMPS:SHP:1,2009-11-01T13:00:00Z,30.0600,-84.2910,-0.813,1111122 
COMPS,ioos:station:USF.COMPS:SHP:1,2009-11-01T13:06:00Z,30.0600,-84.2910,-0.797,1111122 
COMPS,ioos:station:USF.COMPS:SHP:1,2009-11-01T13:12:00Z,30.0600,-84.2910,-0.78,1111122 
COMPS,ioos:station:USF.COMPS:SHP:1,2009-11-01T13:18:00Z,30.0600,-84.2910,-0.761,1111122 
COMPS,ioos:station:USF.COMPS:SHP:1,2009-11-01T13:24:00Z,30.0600,-84.2910,-0.745,1111122 
COMPS,ioos:station:USF.COMPS:SHP:1,2009-11-01T13:30:00Z,30.0600,-84.2910,-0.735,1111122 
COMPS,ioos:station:USF.COMPS:SHP:1,2009-11-01T13:36:00Z,30.0600,-84.2910,-0.722,1111122 
COMPS,ioos:station:USF.COMPS:SHP:1,2009-11-01T13:42:00Z,30.0600,-84.2910,-0.703,1111122 
COMPS,ioos:station:USF.COMPS:SHP:1,2009-11-01T13:48:00Z,30.0600,-84.2910,-0.686,1111122 
COMPS,ioos:station:USF.COMPS:SHP:1,2009-11-01T13:54:00Z,30.0600,-84.2910,-0.674,1111122 
COMPS,ioos:station:USF.COMPS:SHP:1,2009-11-01T14:00:00Z,30.0600,-84.2910,-0.659,1111122 
COMPS,ioos:station:USF.COMPS:SHP:1,2009-11-01T14:06:00Z,30.0600,-84.2910,-0.638,1111122 
COMPS,ioos:station:USF.COMPS:SHP:1,2009-11-01T14:12:00Z,30.0600,-84.2910,-0.622,1111122 
COMPS,ioos:station:USF.COMPS:SHP:1,2009-11-01T14:18:00Z,30.0600,-84.2910,-0.609,1111122 
COMPS,ioos:station:USF.COMPS:SHP:1,2009-11-01T14:24:00Z,30.0600,-84.2910,-0.592,1111122 
COMPS,ioos:station:USF.COMPS:SHP:1,2009-11-01T14:30:00Z,30.0600,-84.2910,-0.568,1111122 
COMPS,ioos:station:USF.COMPS:SHP:1,2009-11-01T14:36:00Z,30.0600,-84.2910,-0.542,1111122 
COMPS,ioos:station:USF.COMPS:SHP:1,2009-11-01T14:42:00Z,30.0600,-84.2910,-0.518,1111122 
COMPS,ioos:station:USF.COMPS:SHP:1,2009-11-01T14:48:00Z,30.0600,-84.2910,-0.494,1111122 
COMPS,ioos:station:USF.COMPS:SHP:1,2009-11-01T14:54:00Z,30.0600,-84.2910,-0.47,1111122 
COMPS,ioos:station:USF.COMPS:SHP:1,2009-11-01T15:00:00Z,30.0600,-84.2910,-0.447,1111122 
COMPS,ioos:station:USF.COMPS:SHP:1,2009-11-01T15:06:00Z,30.0600,-84.2910,-0.423,1111122 
COMPS,ioos:station:USF.COMPS:SHP:1,2009-11-01T15:12:00Z,30.0600,-84.2910,-0.398,1111122 
COMPS,ioos:station:USF.COMPS:SHP:1,2009-11-01T15:18:00Z,30.0600,-84.2910,-0.367,1111122 
COMPS,ioos:station:USF.COMPS:SHP:1,2009-11-01T15:24:00Z,30.0600,-84.2910,-0.331,1111122 
COMPS,ioos:station:USF.COMPS:SHP:1,2009-11-01T15:30:00Z,30.0600,-84.2910,-0.293,1111122 
COMPS,ioos:station:USF.COMPS:SHP:1,2009-11-01T15:36:00Z,30.0600,-84.2910,-0.26,1111122 
COMPS,ioos:station:USF.COMPS:SHP:1,2009-11-01T15:42:00Z,30.0600,-84.2910,-0.23,1111122 
COMPS,ioos:station:USF.COMPS:SHP:1,2009-11-01T15:48:00Z,30.0600,-84.2910,-0.196,1111122 
COMPS,ioos:station:USF.COMPS:SHP:1,2009-11-01T15:54:00Z,30.0600,-84.2910,-0.168,1111122 
COMPS,ioos:station:USF.COMPS:SHP:1,2009-11-01T16:00:00Z,30.0600,-84.2910,-0.14,1111122 
COMPS,ioos:station:USF.COMPS:SHP:1,2009-11-01T16:06:00Z,30.0600,-84.2910,-0.108,1111122 
COMPS,ioos:station:USF.COMPS:SHP:1,2009-11-01T16:12:00Z,30.0600,-84.2910,-0.082,1111122 
COMPS,ioos:station:USF.COMPS:SHP:1,2009-11-01T16:18:00Z,30.0600,-84.2910,-0.053,1111122 
COMPS,ioos:station:USF.COMPS:SHP:1,2009-11-01T16:24:00Z,30.0600,-84.2910,-0.019,1111122 
COMPS,ioos:station:USF.COMPS:SHP:1,2009-11-01T16:30:00Z,30.0600,-84.2910,0.007,1111122 
COMPS,ioos:station:USF.COMPS:SHP:1,2009-11-01T16:36:00Z,30.0600,-84.2910,0.041,1111122 
COMPS,ioos:station:USF.COMPS:SHP:1,2009-11-01T16:42:00Z,30.0600,-84.2910,0.07,1111122 
COMPS,ioos:station:USF.COMPS:SHP:1,2009-11-01T16:48:00Z,30.0600,-84.2910,0.091,1111122 
COMPS,ioos:station:USF.COMPS:SHP:1,2009-11-01T16:54:00Z,30.0600,-84.2910,0.121,1111122 
COMPS,ioos:station:USF.COMPS:SHP:1,2009-11-01T17:00:00Z,30.0600,-84.2910,0.15,1111122 
COMPS,ioos:station:USF.COMPS:SHP:1,2009-11-01T17:06:00Z,30.0600,-84.2910,0.17,1111122 
COMPS,ioos:station:USF.COMPS:SHP:1,2009-11-01T17:12:00Z,30.0600,-84.2910,0.196,1111122 
COMPS,ioos:station:USF.COMPS:SHP:1,2009-11-01T17:18:00Z,30.0600,-84.2910,0.222,1111122 
COMPS,ioos:station:USF.COMPS:SHP:1,2009-11-01T17:24:00Z,30.0600,-84.2910,0.245,1111122 
COMPS,ioos:station:USF.COMPS:SHP:1,2009-11-01T17:30:00Z,30.0600,-84.2910,0.268,1111122 
COMPS,ioos:station:USF.COMPS:SHP:1,2009-11-01T17:36:00Z,30.0600,-84.2910,0.288,1111122 
COMPS,ioos:station:USF.COMPS:SHP:1,2009-11-01T17:42:00Z,30.0600,-84.2910,0.304,1111122 
COMPS,ioos:station:USF.COMPS:SHP:1,2009-11-01T17:48:00Z,30.0600,-84.2910,0.324,1111122 
COMPS,ioos:station:USF.COMPS:SHP:1,2009-11-01T17:54:00Z,30.0600,-84.2910,0.349,1111122 
COMPS,ioos:station:USF.COMPS:SHP:1,2009-11-01T18:00:00Z,30.0600,-84.2910,0.361,1111122 
COMPS,ioos:station:USF.COMPS:SHP:1,2009-11-01T18:06:00Z,30.0600,-84.2910,0.373,1111122 
COMPS,ioos:station:USF.COMPS:SHP:1,2009-11-01T18:12:00Z,30.0600,-84.2910,0.388,1111122 
COMPS,ioos:station:USF.COMPS:SHP:1,2009-11-01T18:18:00Z,30.0600,-84.2910,0.407,1111122 
COMPS,ioos:station:USF.COMPS:SHP:1,2009-11-01T18:24:00Z,30.0600,-84.2910,0.414,1111122 
COMPS,ioos:station:USF.COMPS:SHP:1,2009-11-01T18:30:00Z,30.0600,-84.2910,0.419,1111122 
COMPS,ioos:station:USF.COMPS:SHP:1,2009-11-01T18:36:00Z,30.0600,-84.2910,0.434,1111122 
COMPS,ioos:station:USF.COMPS:SHP:1,2009-11-01T18:42:00Z,30.0600,-84.2910,0.452,1111122 
COMPS,ioos:station:USF.COMPS:SHP:1,2009-11-01T18:48:00Z,30.0600,-84.2910,0.456,1111122 
COMPS,ioos:station:USF.COMPS:SHP:1,2009-11-01T18:54:00Z,30.0600,-84.2910,0.45,1111122 
COMPS,ioos:station:USF.COMPS:SHP:1,2009-11-01T19:00:00Z,30.0600,-84.2910,0.448,1111122 
COMPS,ioos:station:USF.COMPS:SHP:1,2009-11-01T19:06:00Z,30.0600,-84.2910,0.456,1111122 
COMPS,ioos:station:USF.COMPS:SHP:1,2009-11-01T19:12:00Z,30.0600,-84.2910,0.46,1111122 
COMPS,ioos:station:USF.COMPS:SHP:1,2009-11-01T19:18:00Z,30.0600,-84.2910,0.465,1111122 
COMPS,ioos:station:USF.COMPS:SHP:1,2009-11-01T19:24:00Z,30.0600,-84.2910,0.459,1111122 
COMPS,ioos:station:USF.COMPS:SHP:1,2009-11-01T19:30:00Z,30.0600,-84.2910,0.46,1111122 
COMPS,ioos:station:USF.COMPS:SHP:1,2009-11-01T19:36:00Z,30.0600,-84.2910,0.463,1111122 
COMPS,ioos:station:USF.COMPS:SHP:1,2009-11-01T19:42:00Z,30.0600,-84.2910,0.456,1111122 
COMPS,ioos:station:USF.COMPS:SHP:1,2009-11-01T19:48:00Z,30.0600,-84.2910,0.45,1111122 
COMPS,ioos:station:USF.COMPS:SHP:1,2009-11-01T19:54:00Z,30.0600,-84.2910,0.445,1111122 
COMPS,ioos:station:USF.COMPS:SHP:1,2009-11-01T20:00:00Z,30.0600,-84.2910,0.434,1111122 
COMPS,ioos:station:USF.COMPS:SHP:1,2009-11-01T20:06:00Z,30.0600,-84.2910,0.425,1111122 
COMPS,ioos:station:USF.COMPS:SHP:1,2009-11-01T20:12:00Z,30.0600,-84.2910,0.419,1111122 
COMPS,ioos:station:USF.COMPS:SHP:1,2009-11-01T20:18:00Z,30.0600,-84.2910,0.406,1111122 
COMPS,ioos:station:USF.COMPS:SHP:1,2009-11-01T20:24:00Z,30.0600,-84.2910,0.388,1111122 
COMPS,ioos:station:USF.COMPS:SHP:1,2009-11-01T20:30:00Z,30.0600,-84.2910,0.371,1111122 
COMPS,ioos:station:USF.COMPS:SHP:1,2009-11-01T20:36:00Z,30.0600,-84.2910,0.359,1111122 
COMPS,ioos:station:USF.COMPS:SHP:1,2009-11-01T20:42:00Z,30.0600,-84.2910,0.351,1111122 
COMPS,ioos:station:USF.COMPS:SHP:1,2009-11-01T20:48:00Z,30.0600,-84.2910,0.336,1111122 
COMPS,ioos:station:USF.COMPS:SHP:1,2009-11-01T20:54:00Z,30.0600,-84.2910,0.309,1111122 
COMPS,ioos:station:USF.COMPS:SHP:1,2009-11-01T21:00:00Z,30.0600,-84.2910,0.292,1111122 
COMPS,ioos:station:USF.COMPS:SHP:1,2009-11-01T21:06:00Z,30.0600,-84.2910,0.276,1111122 
COMPS,ioos:station:USF.COMPS:SHP:1,2009-11-01T21:12:00Z,30.0600,-84.2910,0.249,1111122 
COMPS,ioos:station:USF.COMPS:SHP:1,2009-11-01T21:18:00Z,30.0600,-84.2910,0.226,1111122 
COMPS,ioos:station:USF.COMPS:SHP:1,2009-11-01T21:24:00Z,30.0600,-84.2910,0.213,1111122 
COMPS,ioos:station:USF.COMPS:SHP:1,2009-11-01T21:30:00Z,30.0600,-84.2910,0.19,1111122 
COMPS,ioos:station:USF.COMPS:SHP:1,2009-11-01T21:36:00Z,30.0600,-84.2910,0.169,1111122 
COMPS,ioos:station:USF.COMPS:SHP:1,2009-11-01T21:42:00Z,30.0600,-84.2910,0.148,1111122 
COMPS,ioos:station:USF.COMPS:SHP:1,2009-11-01T21:48:00Z,30.0600,-84.2910,0.133,1111122 
COMPS,ioos:station:USF.COMPS:SHP:1,2009-11-01T21:54:00Z,30.0600,-84.2910,0.112,1111122 
COMPS,ioos:station:USF.COMPS:SHP:1,2009-11-01T22:00:00Z,30.0600,-84.2910,0.091,1111122 
COMPS,ioos:station:USF.COMPS:SHP:1,2009-11-01T22:06:00Z,30.0600,-84.2910,0.078,1111122 
COMPS,ioos:station:USF.COMPS:SHP:1,2009-11-01T22:12:00Z,30.0600,-84.2910,0.053,1111122 
COMPS,ioos:station:USF.COMPS:SHP:1,2009-11-01T22:18:00Z,30.0600,-84.2910,0.03,1111122 
COMPS,ioos:station:USF.COMPS:SHP:1,2009-11-01T22:24:00Z,30.0600,-84.2910,0.01,1111122 
COMPS,ioos:station:USF.COMPS:SHP:1,2009-11-01T22:30:00Z,30.0600,-84.2910,-0.008,1111122 
COMPS,ioos:station:USF.COMPS:SHP:1,2009-11-01T22:36:00Z,30.0600,-84.2910,-0.026,1111122 
COMPS,ioos:station:USF.COMPS:SHP:1,2009-11-01T22:42:00Z,30.0600,-84.2910,-0.043,1111122 
COMPS,ioos:station:USF.COMPS:SHP:1,2009-11-01T22:48:00Z,30.0600,-84.2910,-0.061,1111122 
COMPS,ioos:station:USF.COMPS:SHP:1,2009-11-01T22:54:00Z,30.0600,-84.2910,-0.075,1111122 
COMPS,ioos:station:USF.COMPS:SHP:1,2009-11-01T23:00:00Z,30.0600,-84.2910,-0.083,1111122 
COMPS,ioos:station:USF.COMPS:SHP:1,2009-11-01T23:06:00Z,30.0600,-84.2910,-0.094,1111122 
COMPS,ioos:station:USF.COMPS:SHP:1,2009-11-01T23:12:00Z,30.0600,-84.2910,-0.106,1111122 
COMPS,ioos:station:USF.COMPS:SHP:1,2009-11-01T23:18:00Z,30.0600,-84.2910,-0.12,1111122 
COMPS,ioos:station:USF.COMPS:SHP:1,2009-11-01T23:24:00Z,30.0600,-84.2910,-0.134,1111122 
COMPS,ioos:station:USF.COMPS:SHP:1,2009-11-01T23:30:00Z,30.0600,-84.2910,-0.144,1111122 
COMPS,ioos:station:USF.COMPS:SHP:1,2009-11-01T23:36:00Z,30.0600,-84.2910,-0.149,1111122 
COMPS,ioos:station:USF.COMPS:SHP:1,2009-11-01T23:42:00Z,30.0600,-84.2910,-0.154,1111122 
COMPS,ioos:station:USF.COMPS:SHP:1,2009-11-01T23:48:00Z,30.0600,-84.2910,-0.159,1111122 
COMPS,ioos:station:USF.COMPS:SHP:1,2009-11-01T23:54:00Z,30.0600,-84.2910,-0.16,1111122 
COMPS,ioos:station:USF.COMPS:SHP:1,2009-11-02T00:00:00Z,30.0600,-84.2910,-0.162,1111122 
COMPS,ioos:station:USF.COMPS:SHP:1,2009-11-02T00:06:00Z,30.0600,-84.2910,-0.164,1111122 
COMPS,ioos:station:USF.COMPS:SHP:1,2009-11-02T00:12:00Z,30.0600,-84.2910,-0.165,1111122 
COMPS,ioos:station:USF.COMPS:SHP:1,2009-11-02T00:18:00Z,30.0600,-84.2910,-0.165,1111122 
COMPS,ioos:station:USF.COMPS:SHP:1,2009-11-02T00:24:00Z,30.0600,-84.2910,-0.161,1111122 
COMPS,ioos:station:USF.COMPS:SHP:1,2009-11-02T00:30:00Z,30.0600,-84.2910,-0.152,1111122 
COMPS,ioos:station:USF.COMPS:SHP:1,2009-11-02T00:36:00Z,30.0600,-84.2910,-0.15,1111122 
COMPS,ioos:station:USF.COMPS:SHP:1,2009-11-02T00:42:00Z,30.0600,-84.2910,-0.152,1111122 
COMPS,ioos:station:USF.COMPS:SHP:1,2009-11-02T00:48:00Z,30.0600,-84.2910,-0.15,1111122 
COMPS,ioos:station:USF.COMPS:SHP:1,2009-11-02T00:54:00Z,30.0600,-84.2910,-0.142,1111122 
COMPS,ioos:station:USF.COMPS:SHP:1,2009-11-02T01:00:00Z,30.0600,-84.2910,-0.13,1111122 
COMPS,ioos:station:USF.COMPS:SHP:1,2009-11-02T01:06:00Z,30.0600,-84.2910,-0.124,1111122 
COMPS,ioos:station:USF.COMPS:SHP:1,2009-11-02T01:12:00Z,30.0600,-84.2910,-0.124,1111122 
COMPS,ioos:station:USF.COMPS:SHP:1,2009-11-02T01:18:00Z,30.0600,-84.2910,-0.124,1111122 
COMPS,ioos:station:USF.COMPS:SHP:1,2009-11-02T01:24:00Z,30.0600,-84.2910,-0.122,1111122 
COMPS,ioos:station:USF.COMPS:SHP:1,2009-11-02T01:30:00Z,30.0600,-84.2910,-0.116,1111122 
COMPS,ioos:station:USF.COMPS:SHP:1,2009-11-02T01:36:00Z,30.0600,-84.2910,-0.095,1111122 
COMPS,ioos:station:USF.COMPS:SHP:1,2009-11-02T01:42:00Z,30.0600,-84.2910,-0.075,1111122 
COMPS,ioos:station:USF.COMPS:SHP:1,2009-11-02T01:48:00Z,30.0600,-84.2910,-0.06,1111122 
COMPS,ioos:station:USF.COMPS:SHP:1,2009-11-02T01:54:00Z,30.0600,-84.2910,-0.047,1111122 
COMPS,ioos:station:USF.COMPS:SHP:1,2009-11-02T02:00:00Z,30.0600,-84.2910,-0.038,1111122 
COMPS,ioos:station:USF.COMPS:SHP:1,2009-11-02T02:06:00Z,30.0600,-84.2910,-0.028,1111122 
COMPS,ioos:station:USF.COMPS:SHP:1,2009-11-02T02:12:00Z,30.0600,-84.2910,-0.023,1111122 
COMPS,ioos:station:USF.COMPS:SHP:1,2009-11-02T02:18:00Z,30.0600,-84.2910,-0.009,1111122 
COMPS,ioos:station:USF.COMPS:SHP:1,2009-11-02T02:24:00Z,30.0600,-84.2910,0.015,1111122 
COMPS,ioos:station:USF.COMPS:SHP:1,2009-11-02T02:30:00Z,30.0600,-84.2910,0.037,1111122 
COMPS,ioos:station:USF.COMPS:SHP:1,2009-11-02T02:36:00Z,30.0600,-84.2910,0.055,1111122 
COMPS,ioos:station:USF.COMPS:SHP:1,2009-11-02T02:42:00Z,30.0600,-84.2910,0.072,1111122 
COMPS,ioos:station:USF.COMPS:SHP:1,2009-11-02T02:48:00Z,30.0600,-84.2910,0.084,1111122 
COMPS,ioos:station:USF.COMPS:SHP:1,2009-11-02T02:54:00Z,30.0600,-84.2910,0.103,1111122 